This demonstration page uses our WeatherBlox Daily Observations layout. Learn more.

Left ArrowRight Arrow

Hourly Observations for November 30, 2017

Temp ( °F °C ) Dew Point ( °F °C ) Humidity (%) Winds ( mph kmh ) Pressure ( in mb ) Visibility ( mi km ) Precip ( " mm )
12:56 am 00:56 Clear 39 3.9 22 -5.6 50 50 N 16 26 30.27 1025 10 16 0.00 0.00
1:56 am 01:56 Clear 38 3.3 23 -5 55 55 NNW 9 15 30.29 1026 10 16 0.00 0.00
2:56 am 02:56 Clear 36 2.2 22 -5.6 57 57 NNW 7 11 30.31 1026 10 16 0.00 0.00
3:56 am 03:56 Clear 34 1.1 22 -5.6 61 61 NW 7 11 30.33 1027 10 16 0.00 0.00
4:56 am 04:56 Clear 33 0.6 22 -5.6 64 64 W 7 11 30.34 1028 10 16 0.00 0.00
5:56 am 05:56 Clear 31 -0.6 22 -5.6 69 69 WNW 8 13 30.35 1028 10 16 0.00 0.00
6:56 am 06:56 Clear 33 0.6 21 -6.1 61 61 W 9 15 30.38 1029 10 16 0.00 0.00
7:56 am 07:56 Sunny 29 -1.7 21 -6.1 72 72 W 7 11 30.40 1029 10 16 0.00 0.00
8:56 am 08:56 Sunny 34 1.1 21 -6.1 59 59 W 8 13 30.40 1030 10 16 0.00 0.00
9:56 am 09:56 Sunny 42 5.6 21 -6.1 43 43 WNW 9 15 30.38 1029 10 16 0.00 0.00
10:56 am 10:56 Sunny 45 7.2 23 -5 42 42 WSW 10 17 30.38 1029 10 16 0.00 0.00
11:56 am 11:56 Sunny 49 9.4 20 -6.7 32 32 WSW 14 22 30.36 1028 10 16 0.00 0.00
12:56 pm 12:56 Sunny 50 10 21 -6.1 32 32 WSW 10 17 30.31 1026 10 16 0.00 0.00
1:56 pm 13:56 Sunny 53 11.7 18 -7.8 25 25 WSW 12 19 30.27 1025 10 16 0.00 0.00
2:56 pm 14:56 Sunny 53 11.7 17 -8.3 24 24 SW 10 17 30.24 1024 9 14 0.00 0.00
3:56 pm 15:56 Sunny 52 11.1 16 -8.9 24 24 SSW 15 24 30.21 1023 10 16 0.00 0.00
4:56 pm 16:56 Sunny 45 7.2 18 -7.8 34 34 S 9 15 30.21 1023 10 16 0.00 0.00
5:56 pm 17:56 Clear 41 5 17 -8.3 38 38 S 7 11 30.22 1024 10 16 0.00 0.00
6:56 pm 18:56 Clear 35 1.7 18 -7.8 50 50 S 8 13 30.23 1024 10 16 0.00 0.00
7:56 pm 19:56 Clear 32 0 18 -7.8 56 56 S 12 19 30.23 1024 10 16 0.00 0.00
8:56 pm 20:56 Clear 37 2.8 19 -7.2 48 48 S 12 19 30.19 1022 10 16 0.00 0.00
9:56 pm 21:56 Clear 37 2.8 19 -7.2 48 48 SSW 9 15 30.17 1022 10 16 0.00 0.00
10:56 pm 22:56 Clear 34 1.1 19 -7.2 54 54 SSW 7 11 30.17 1022 10 16 0.00 0.00
11:56 pm 23:56 Clear 32 0 19 -7.2 59 59 SSW 6 9 30.16 1021 10 16 0.00 0.00

Powered by AerisWeather